Year,Month,Day,Hour,Minute,Value (Times are PST for temperature in C)
2012,04,08,07,17,2.20
2012,04,08,07,18,2.20
2012,04,08,07,19,2.20
2012,04,08,07,20,2.30
2012,04,08,07,21,2.30
2012,04,08,07,22,2.40
2012,04,08,07,23,2.40
2012,04,08,07,24,2.40
2012,04,08,07,25,2.50
2012,04,08,07,26,2.50
2012,04,08,07,27,2.50
2012,04,08,07,28,2.60
2012,04,08,07,29,2.60
2012,04,08,07,30,2.70
2012,04,08,07,31,2.70
2012,04,08,07,32,2.70
2012,04,08,07,33,2.70
2012,04,08,07,34,2.80
2012,04,08,07,35,2.80
2012,04,08,07,36,2.80
2012,04,08,07,37,2.80
2012,04,08,07,38,2.90
2012,04,08,07,39,2.90
2012,04,08,07,40,2.90
2012,04,08,07,41,2.90
2012,04,08,07,42,2.90
2012,04,08,07,43,3.00
2012,04,08,07,44,3.00
2012,04,08,07,45,3.10
2012,04,08,07,46,3.10
2012,04,08,07,47,3.10
2012,04,08,07,48,3.20
2012,04,08,07,49,3.20
2012,04,08,07,50,3.30
2012,04,08,07,51,3.30
2012,04,08,07,52,3.30
2012,04,08,07,53,3.40
2012,04,08,07,54,3.40
2012,04,08,07,55,3.40
2012,04,08,07,56,3.50
2012,04,08,07,57,3.50
2012,04,08,07,58,3.60
2012,04,08,07,59,3.60
2012,04,08,08,00,3.60
2012,04,08,08,01,3.70
2012,04,08,08,02,3.70
2012,04,08,08,03,3.70
2012,04,08,08,04,3.70
2012,04,08,08,05,3.80
2012,04,08,08,06,3.80
2012,04,08,08,07,3.80
2012,04,08,08,08,3.90
2012,04,08,08,09,3.90
2012,04,08,08,10,3.90
2012,04,08,08,11,4.00
2012,04,08,08,12,4.00
2012,04,08,08,13,4.10
2012,04,08,08,14,4.10
2012,04,08,08,15,4.10
2012,04,08,08,16,4.20
2012,04,08,08,17,4.20
2012,04,08,08,18,4.30
2012,04,08,08,19,4.30
2012,04,08,08,20,4.30
2012,04,08,08,21,4.40
2012,04,08,08,22,4.40
2012,04,08,08,23,4.50
2012,04,08,08,24,4.60
2012,04,08,08,25,4.60
2012,04,08,08,26,4.70
2012,04,08,08,27,4.70
2012,04,08,08,28,4.80
2012,04,08,08,29,4.80
2012,04,08,08,30,4.80
2012,04,08,08,31,4.90
2012,04,08,08,32,4.90
2012,04,08,08,33,5.00
2012,04,08,08,34,5.10
2012,04,08,08,35,5.10
2012,04,08,08,36,5.20
2012,04,08,08,37,5.20
2012,04,08,08,38,5.30
2012,04,08,08,39,5.30
2012,04,08,08,40,5.30
2012,04,08,08,41,5.40
2012,04,08,08,42,5.50
2012,04,08,08,43,5.50
2012,04,08,08,44,5.60
2012,04,08,08,45,5.60
2012,04,08,08,46,5.60
2012,04,08,08,47,5.70
2012,04,08,08,48,5.70
2012,04,08,08,49,5.80
2012,04,08,08,50,5.80
2012,04,08,08,51,5.80
2012,04,08,08,52,5.90
2012,04,08,08,53,5.90
2012,04,08,08,54,6.00
2012,04,08,08,55,6.00
2012,04,08,08,56,6.10
2012,04,08,08,57,6.20
2012,04,08,08,58,6.20
2012,04,08,08,59,6.30
2012,04,08,09,00,6.40
2012,04,08,09,01,6.40
2012,04,08,09,02,6.40
2012,04,08,09,03,6.50
2012,04,08,09,04,6.50
2012,04,08,09,05,6.60
2012,04,08,09,06,6.60
2012,04,08,09,07,6.70
2012,04,08,09,08,6.70
2012,04,08,09,09,6.70
2012,04,08,09,10,6.80
2012,04,08,09,11,6.80
2012,04,08,09,12,6.80
2012,04,08,09,13,6.90
2012,04,08,09,14,6.90
2012,04,08,09,15,6.90
2012,04,08,09,16,6.90
2012,04,08,09,17,7.00
2012,04,08,09,18,7.00
2012,04,08,09,19,7.00
2012,04,08,09,20,7.00
2012,04,08,09,21,7.10
2012,04,08,09,22,7.10
2012,04,08,09,23,7.10
2012,04,08,09,24,7.10
2012,04,08,09,25,7.20
2012,04,08,09,26,7.20
2012,04,08,09,27,7.20
2012,04,08,09,28,7.20
2012,04,08,09,29,7.20
2012,04,08,09,30,7.20
2012,04,08,09,31,7.20
2012,04,08,09,32,7.20
2012,04,08,09,33,7.30
2012,04,08,09,34,7.30
2012,04,08,09,35,7.30
2012,04,08,09,36,7.30
2012,04,08,09,37,7.40
2012,04,08,09,38,7.40
2012,04,08,09,39,7.40
2012,04,08,09,40,7.40
2012,04,08,09,41,7.50
2012,04,08,09,42,7.50
2012,04,08,09,43,7.50
2012,04,08,09,44,7.60
2012,04,08,09,45,7.60
2012,04,08,09,46,7.60
2012,04,08,09,47,7.70
2012,04,08,09,48,7.70
2012,04,08,09,49,7.70
2012,04,08,09,50,7.70
2012,04,08,09,51,7.70
2012,04,08,09,52,7.70
2012,04,08,09,53,7.80
2012,04,08,09,54,7.80
2012,04,08,09,55,7.80
2012,04,08,09,56,7.80
2012,04,08,09,57,7.80
2012,04,08,09,58,7.90
2012,04,08,09,59,7.90
2012,04,08,10,00,7.90
2012,04,08,10,01,7.90
2012,04,08,10,02,7.90
2012,04,08,10,03,7.90
2012,04,08,10,04,7.90
2012,04,08,10,05,7.90
2012,04,08,10,06,7.90
2012,04,08,10,07,8.00
2012,04,08,10,08,8.00
2012,04,08,10,09,8.00
2012,04,08,10,10,8.00
2012,04,08,10,11,8.10
2012,04,08,10,12,8.10
2012,04,08,10,13,8.10
2012,04,08,10,14,8.10
2012,04,08,10,15,8.10
2012,04,08,10,16,8.20
2012,04,08,10,17,8.20
2012,04,08,10,18,8.20
2012,04,08,10,19,8.20
2012,04,08,10,20,8.20
2012,04,08,10,21,8.20
2012,04,08,10,22,8.20
2012,04,08,10,23,8.30
2012,04,08,10,24,8.30
2012,04,08,10,25,8.40
2012,04,08,10,26,8.40
2012,04,08,10,27,8.50
2012,04,08,10,28,8.60
2012,04,08,10,29,8.70
2012,04,08,10,30,8.70
2012,04,08,10,31,8.80
2012,04,08,10,32,8.80
2012,04,08,10,33,8.80
2012,04,08,10,34,8.80
2012,04,08,10,35,8.90
2012,04,08,10,36,8.90
2012,04,08,10,37,8.90
2012,04,08,10,38,8.90
2012,04,08,10,39,8.90
2012,04,08,10,40,8.90
2012,04,08,10,41,8.90
2012,04,08,10,42,8.80
2012,04,08,10,43,8.80
2012,04,08,10,44,8.80
2012,04,08,10,45,8.80
2012,04,08,10,46,8.80
2012,04,08,10,47,8.80
2012,04,08,10,48,8.80
2012,04,08,10,49,8.80
2012,04,08,10,50,8.90
2012,04,08,10,51,8.90
2012,04,08,10,52,8.90
2012,04,08,10,53,8.90
2012,04,08,10,54,8.90
2012,04,08,10,55,8.90
2012,04,08,10,56,9.00
2012,04,08,10,57,9.10
2012,04,08,10,58,9.10
2012,04,08,10,59,9.20
2012,04,08,11,00,9.20
2012,04,08,11,01,9.30
2012,04,08,11,02,9.30
2012,04,08,11,03,9.40
2012,04,08,11,04,9.50
2012,04,08,11,05,9.50
2012,04,08,11,06,9.60
2012,04,08,11,07,9.60
2012,04,08,11,08,9.60
2012,04,08,11,09,9.50
2012,04,08,11,10,9.50
2012,04,08,11,11,9.40
2012,04,08,11,12,9.40
2012,04,08,11,13,9.30
2012,04,08,11,14,9.30
2012,04,08,11,15,9.30
2012,04,08,11,16,9.30
2012,04,08,11,17,9.30
2012,04,08,11,18,9.20
2012,04,08,11,19,9.20
2012,04,08,11,20,9.20
2012,04,08,11,21,9.20
2012,04,08,11,22,9.20
2012,04,08,11,23,9.20
2012,04,08,11,24,9.20
2012,04,08,11,25,9.20
2012,04,08,11,26,9.20
2012,04,08,11,27,9.20
2012,04,08,11,28,9.20
2012,04,08,11,29,9.20
2012,04,08,11,30,9.20
2012,04,08,11,31,9.20
2012,04,08,11,32,9.30
2012,04,08,11,33,9.30
2012,04,08,11,34,9.30
2012,04,08,11,35,9.30
2012,04,08,11,36,9.30
2012,04,08,11,37,9.20
2012,04,08,11,38,9.20
2012,04,08,11,39,9.20
2012,04,08,11,40,9.20
2012,04,08,11,41,9.20
2012,04,08,11,42,9.20
2012,04,08,11,43,9.30
2012,04,08,11,44,9.20
2012,04,08,11,45,9.20
2012,04,08,11,46,9.10
2012,04,08,11,47,9.10
2012,04,08,11,48,9.10
2012,04,08,11,49,9.10
2012,04,08,11,50,9.10
2012,04,08,11,51,9.10
2012,04,08,11,52,9.10
2012,04,08,11,53,9.10
2012,04,08,11,54,9.10
2012,04,08,11,55,9.10
2012,04,08,11,56,9.10
2012,04,08,11,57,9.10
2012,04,08,11,58,9.10
2012,04,08,11,59,9.00
2012,04,08,12,00,9.00
2012,04,08,12,01,9.10
2012,04,08,12,02,9.10
2012,04,08,12,03,9.10
2012,04,08,12,04,9.10
2012,04,08,12,05,9.20
2012,04,08,12,06,9.20
2012,04,08,12,07,9.30
2012,04,08,12,08,9.30
2012,04,08,12,09,9.30
2012,04,08,12,10,9.30
2012,04,08,12,11,9.30
2012,04,08,12,12,9.30
2012,04,08,12,13,9.20
2012,04,08,12,14,9.20
2012,04,08,12,15,9.20
2012,04,08,12,16,9.20
2012,04,08,12,17,9.10
2012,04,08,12,18,9.10
2012,04,08,12,19,9.10
2012,04,08,12,20,9.10
2012,04,08,12,21,9.10
2012,04,08,12,22,9.10
2012,04,08,12,23,9.10
2012,04,08,12,24,9.10
2012,04,08,12,25,9.10
2012,04,08,12,26,9.10
2012,04,08,12,27,9.10
2012,04,08,12,28,9.10
2012,04,08,12,29,9.10
2012,04,08,12,30,9.20
2012,04,08,12,31,9.20
2012,04,08,12,32,9.20
2012,04,08,12,33,9.20
2012,04,08,12,34,9.20
2012,04,08,12,35,9.30
2012,04,08,12,36,9.30
2012,04,08,12,37,9.30
2012,04,08,12,38,9.40
2012,04,08,12,39,9.40
2012,04,08,12,40,9.40
2012,04,08,12,41,9.40
2012,04,08,12,42,9.40
2012,04,08,12,43,9.40
2012,04,08,12,44,9.40
2012,04,08,12,45,9.30
2012,04,08,12,46,9.30
2012,04,08,12,47,9.30
2012,04,08,12,48,9.40
2012,04,08,12,49,9.40
2012,04,08,12,50,9.40
2012,04,08,12,51,9.40
2012,04,08,12,52,9.40
2012,04,08,12,53,9.40
2012,04,08,12,54,9.40
2012,04,08,12,55,9.40
2012,04,08,12,56,9.40
2012,04,08,12,57,9.40
2012,04,08,12,58,9.50
2012,04,08,12,59,9.50
2012,04,08,13,00,9.50
2012,04,08,13,01,9.50
2012,04,08,13,02,9.50
2012,04,08,13,03,9.60
2012,04,08,13,04,9.60
2012,04,08,13,05,9.60
2012,04,08,13,06,9.60
2012,04,08,13,07,9.60
2012,04,08,13,08,9.70
2012,04,08,13,09,9.70
2012,04,08,13,10,9.70
2012,04,08,13,11,9.80
2012,04,08,13,12,9.80
2012,04,08,13,13,9.80
2012,04,08,13,14,9.90
2012,04,08,13,15,9.90
2012,04,08,13,16,9.90
2012,04,08,13,17,9.80
2012,04,08,13,18,9.80
2012,04,08,13,19,9.80
2012,04,08,13,20,9.80
2012,04,08,13,21,9.80
2012,04,08,13,22,9.80
2012,04,08,13,23,9.80
2012,04,08,13,24,9.80
2012,04,08,13,25,9.80
2012,04,08,13,26,9.80
2012,04,08,13,27,9.80
2012,04,08,13,28,9.80
2012,04,08,13,29,9.70
2012,04,08,13,30,9.70
2012,04,08,13,31,9.70
2012,04,08,13,32,9.70
2012,04,08,13,33,9.70
2012,04,08,13,34,9.70
2012,04,08,13,35,9.70
2012,04,08,13,36,9.70
2012,04,08,13,37,9.70
2012,04,08,13,38,9.70
2012,04,08,13,39,9.60
2012,04,08,13,40,9.60
2012,04,08,13,41,9.60
2012,04,08,13,42,9.60
2012,04,08,13,43,9.60
2012,04,08,13,44,9.60
2012,04,08,13,45,9.60
2012,04,08,13,46,9.60
2012,04,08,13,47,9.70
2012,04,08,13,48,9.70
2012,04,08,13,49,9.70
2012,04,08,13,50,9.70
2012,04,08,13,51,9.70
2012,04,08,13,52,9.80
2012,04,08,13,53,9.80
2012,04,08,13,54,9.80
2012,04,08,13,55,9.90
2012,04,08,13,56,9.90
2012,04,08,13,57,9.90
2012,04,08,13,58,9.90
2012,04,08,13,59,10.00
2012,04,08,14,00,10.00
2012,04,08,14,01,10.00
2012,04,08,14,02,10.00
2012,04,08,14,03,10.00
2012,04,08,14,04,10.00
2012,04,08,14,05,9.90
2012,04,08,14,06,9.90
2012,04,08,14,07,9.90
2012,04,08,14,08,9.90
2012,04,08,14,09,9.90
2012,04,08,14,10,9.90
2012,04,08,14,11,9.90
2012,04,08,14,12,9.90
2012,04,08,14,13,9.90
2012,04,08,14,14,9.90
2012,04,08,14,15,9.90
2012,04,08,14,16,9.90
2012,04,08,14,17,9.90
2012,04,08,14,18,9.90
2012,04,08,14,19,9.90
2012,04,08,14,20,9.90
2012,04,08,14,21,10.00
2012,04,08,14,22,10.00
2012,04,08,14,23,10.00
2012,04,08,14,24,10.10
2012,04,08,14,25,10.10
2012,04,08,14,26,10.10
2012,04,08,14,27,10.10
2012,04,08,14,28,10.10
2012,04,08,14,29,10.10
2012,04,08,14,30,10.10
2012,04,08,14,31,10.10
2012,04,08,14,32,10.10
2012,04,08,14,33,10.10
2012,04,08,14,34,10.10
2012,04,08,14,35,10.10
2012,04,08,14,36,10.10
2012,04,08,14,37,10.10
2012,04,08,14,38,10.10
2012,04,08,14,39,10.10
2012,04,08,14,40,10.10
2012,04,08,14,41,10.10
2012,04,08,14,42,10.10
2012,04,08,14,43,10.10
2012,04,08,14,44,10.10
2012,04,08,14,45,10.10
2012,04,08,14,46,10.10
2012,04,08,14,47,10.10
2012,04,08,14,48,10.10
2012,04,08,14,49,10.10
2012,04,08,14,50,10.10
2012,04,08,14,51,10.10
2012,04,08,14,52,10.10
2012,04,08,14,53,10.10
2012,04,08,14,54,10.20
2012,04,08,14,55,10.20
2012,04,08,14,56,10.20
2012,04,08,14,57,10.20
2012,04,08,14,58,10.20
2012,04,08,14,59,10.20
2012,04,08,15,00,10.20
2012,04,08,15,01,10.20
2012,04,08,15,02,10.20
2012,04,08,15,03,10.20
2012,04,08,15,04,10.20
2012,04,08,15,05,10.30
2012,04,08,15,06,10.30
2012,04,08,15,07,10.30
2012,04,08,15,08,10.40
2012,04,08,15,09,10.40
2012,04,08,15,10,10.40
2012,04,08,15,11,10.40
2012,04,08,15,12,10.40
2012,04,08,15,13,10.40
2012,04,08,15,14,10.40
2012,04,08,15,15,10.40
2012,04,08,15,16,10.40
2012,04,08,15,17,10.40
2012,04,08,15,18,10.40
2012,04,08,15,19,10.40
2012,04,08,15,20,10.40
2012,04,08,15,21,10.40
2012,04,08,15,22,10.40
2012,04,08,15,23,10.40
2012,04,08,15,24,10.40
2012,04,08,15,25,10.40
2012,04,08,15,26,10.40
2012,04,08,15,27,10.40
2012,04,08,15,28,10.40
2012,04,08,15,29,10.40
2012,04,08,15,30,10.50
2012,04,08,15,31,10.50
2012,04,08,15,32,10.60
2012,04,08,15,33,10.60
2012,04,08,15,34,10.70
2012,04,08,15,35,10.70
2012,04,08,15,36,10.70
2012,04,08,15,37,10.70
2012,04,08,15,38,10.70
2012,04,08,15,39,10.70
2012,04,08,15,40,10.70
2012,04,08,15,41,10.70
2012,04,08,15,42,10.80
2012,04,08,15,43,10.80
2012,04,08,15,44,10.80
2012,04,08,15,45,10.80
2012,04,08,15,46,10.90
2012,04,08,15,47,10.90
2012,04,08,15,48,10.90
2012,04,08,15,49,10.90
2012,04,08,15,50,10.90
2012,04,08,15,51,11.00
2012,04,08,15,52,11.00
2012,04,08,15,53,11.00
2012,04,08,15,54,11.00
2012,04,08,15,55,11.00
2012,04,08,15,56,11.00
2012,04,08,15,57,11.00
2012,04,08,15,58,11.00
2012,04,08,15,59,11.10
2012,04,08,16,00,11.10
2012,04,08,16,01,11.10
2012,04,08,16,02,11.10
2012,04,08,16,03,11.10
2012,04,08,16,04,11.10
2012,04,08,16,05,11.10
2012,04,08,16,06,11.20
2012,04,08,16,07,11.20
2012,04,08,16,08,11.20
2012,04,08,16,09,11.30
2012,04,08,16,10,11.30
2012,04,08,16,11,11.30
2012,04,08,16,12,11.30
2012,04,08,16,13,11.30
2012,04,08,16,14,11.30
2012,04,08,16,15,11.30
2012,04,08,16,16,11.30
2012,04,08,16,17,11.30
2012,04,08,16,18,11.30
2012,04,08,16,19,11.30
2012,04,08,16,20,11.30
2012,04,08,16,21,11.30
2012,04,08,16,22,11.30
2012,04,08,16,23,11.30
2012,04,08,16,24,11.40
2012,04,08,16,25,11.40
2012,04,08,16,26,11.40
2012,04,08,16,27,11.40
2012,04,08,16,28,11.40
2012,04,08,16,29,11.40
2012,04,08,16,30,11.40
2012,04,08,16,31,11.40
2012,04,08,16,32,11.40
2012,04,08,16,33,11.40
2012,04,08,16,34,11.30
2012,04,08,16,35,11.30
2012,04,08,16,36,11.40
2012,04,08,16,37,11.40
2012,04,08,16,38,11.40
2012,04,08,16,39,11.40
2012,04,08,16,40,11.50
2012,04,08,16,41,11.60
2012,04,08,16,42,11.60
2012,04,08,16,43,11.60
2012,04,08,16,44,11.60
2012,04,08,16,45,11.60
2012,04,08,16,46,11.50
2012,04,08,16,47,11.40
2012,04,08,16,48,11.40
2012,04,08,16,49,11.40
2012,04,08,16,50,11.40
2012,04,08,16,51,11.40
2012,04,08,16,52,11.40
2012,04,08,16,53,11.40
2012,04,08,16,54,11.40
2012,04,08,16,55,11.40
2012,04,08,16,56,11.50
2012,04,08,16,57,11.50
2012,04,08,16,58,11.50
2012,04,08,16,59,11.50
2012,04,08,17,00,11.60
2012,04,08,17,01,11.60
2012,04,08,17,02,11.60
2012,04,08,17,03,11.60
2012,04,08,17,04,11.60
2012,04,08,17,05,11.60
2012,04,08,17,06,11.60
2012,04,08,17,07,11.60
2012,04,08,17,08,11.60
2012,04,08,17,09,11.60
2012,04,08,17,10,11.60
2012,04,08,17,11,11.60
2012,04,08,17,12,11.60
2012,04,08,17,13,11.60
2012,04,08,17,14,11.60
2012,04,08,17,15,11.70
2012,04,08,17,16,11.70
2012,04,08,17,17,11.70
2012,04,08,17,18,11.70
2012,04,08,17,19,11.70
2012,04,08,17,20,11.70
2012,04,08,17,21,11.70
2012,04,08,17,22,11.70
2012,04,08,17,23,11.70
2012,04,08,17,24,11.70
2012,04,08,17,25,11.70
2012,04,08,17,26,11.60
2012,04,08,17,27,11.60
2012,04,08,17,28,11.70
2012,04,08,17,29,11.70
2012,04,08,17,30,11.70
2012,04,08,17,31,11.70
2012,04,08,17,32,11.70
2012,04,08,17,33,11.70
2012,04,08,17,34,11.70
2012,04,08,17,35,11.70
2012,04,08,17,36,11.70
2012,04,08,17,37,11.70
2012,04,08,17,38,11.70
2012,04,08,17,39,11.70
2012,04,08,17,40,11.70
2012,04,08,17,41,11.80
2012,04,08,17,42,11.80
2012,04,08,17,43,11.80
2012,04,08,17,44,11.80
2012,04,08,17,45,11.80
2012,04,08,17,46,11.80
2012,04,08,17,47,11.80
2012,04,08,17,48,11.80
2012,04,08,17,49,11.80
2012,04,08,17,50,11.80
2012,04,08,17,51,11.80
2012,04,08,17,52,11.80
2012,04,08,17,53,11.80
2012,04,08,17,54,11.80
2012,04,08,17,55,11.80
2012,04,08,17,56,11.80
2012,04,08,17,57,11.80
2012,04,08,17,58,11.80
2012,04,08,17,59,11.80
2012,04,08,18,00,11.80
2012,04,08,18,01,11.80
2012,04,08,18,02,11.80
2012,04,08,18,03,11.80
2012,04,08,18,04,11.80
2012,04,08,18,05,11.80
2012,04,08,18,06,11.80
2012,04,08,18,07,11.90
2012,04,08,18,08,11.90
2012,04,08,18,09,11.90
2012,04,08,18,10,11.90
2012,04,08,18,11,11.90
2012,04,08,18,12,11.90
2012,04,08,18,13,11.90
2012,04,08,18,14,11.90
2012,04,08,18,15,11.90
2012,04,08,18,16,11.80
2012,04,08,18,17,11.80
2012,04,08,18,18,11.90
2012,04,08,18,19,11.90
2012,04,08,18,20,11.80
2012,04,08,18,21,11.80
2012,04,08,18,22,11.80
2012,04,08,18,23,11.80
2012,04,08,18,24,11.80
2012,04,08,18,25,11.80
2012,04,08,18,26,11.80
2012,04,08,18,27,11.70
2012,04,08,18,28,11.70
2012,04,08,18,29,11.70
2012,04,08,18,30,11.70
2012,04,08,18,31,11.70
2012,04,08,18,32,11.70
2012,04,08,18,33,11.70
2012,04,08,18,34,11.70
2012,04,08,18,35,11.70
2012,04,08,18,36,11.70
2012,04,08,18,37,11.70
2012,04,08,18,38,11.70
2012,04,08,18,39,11.70
2012,04,08,18,40,11.70
2012,04,08,18,41,11.70
2012,04,08,18,42,11.70
